Change the Weather History Date:

Wednesday, October 30, 2013

  Actual Average Record
Temperature  
Mean Temperature 48 °F -  
Max Temperature 50 °F - - ()
Min Temperature 45 °F - - ()
Degree Days  
Heating Degree Days 18    
Moisture  
Dew Point 44 °F    
Average Humidity 85    
Maximum Humidity 92    
Minimum Humidity 77    
Precipitation  
Precipitation 0.01 in - - ()
Sea Level Pressure  
Sea Level Pressure 30.03 in    
Wind  
Wind Speed 12 mph ()    
Max Wind Speed 26 mph    
Max Gust Speed -    
T = Trace of Precipitation, MM = Missing Value Source: Averaged Metar Reports

Daily Weather History Graph

Daily Weather History Graph

Search for Another Location

Airport or City:

Trip Planner

Search our weather history database for the weather conditions in past years. The results will help you decide how hot, cold, wet, or windy it might be!

Date:

Astronomy

Oct. 30, 2013 Rise Set
Actual Time 8:02 AM PDT 5:57 PM PDT
Civil Twilight 7:28 AM PDT 6:30 PM PDT
Nautical Twilight 6:51 AM PDT 7:08 PM PDT
Astronomical Twilight 6:14 AM PDT 7:45 PM PDT
Moon 3:36 AM PDT (10/30) 4:03 PM PDT (10/30)
Length of Visible Light 11h 02m
Length of Day
9h 55m
Waning Crescent, 16% of the Moon is Illuminated
Oct 30
Waning Crescent
Nov 3
New
Nov 9
First Quarter
Nov 17
Full
Nov 25
Last Quarter

Hourly Weather History & Observations

Time (PDT) Temp. Windchill Dew Point Humidity Pressure Visibility Wind Dir Wind Speed Gust Speed Precip Events Conditions
12:00 AM 46.2 °F - 41.9 °F 85% 29.99 in - ESE 2.3 mph - N/A   Unknown
1:00 AM 45.9 °F 43.6 °F 41.4 °F 84% 29.99 in - SE 4.6 mph - N/A   Unknown
2:00 AM 45.5 °F 44.2 °F 41.9 °F 87% 30.01 in - ESE 3.5 mph - N/A   Unknown
3:00 AM 47.3 °F - 43.7 °F 87% 30.01 in - ESE 4.6 mph - N/A   Unknown
4:00 AM 47.5 °F - 42.8 °F 84% 30.02 in - ESE 5.8 mph - N/A   Unknown
5:00 AM 49 °F - 44 °F 77% 30.02 in - ESE 12.7 mph - -  
5:00 AM 48.6 °F - 44.1 °F 84% 30.02 in - ESE 12.7 mph - N/A   Unknown
6:00 AM 48.2 °F - 43.5 °F 84% 30.03 in - ESE 12.7 mph - N/A   Unknown
7:00 AM 48.0 °F - 43.0 °F 83% 30.04 in - ESE 12.7 mph - N/A   Unknown
8:00 AM 47.8 °F - 43.2 °F 84% 30.04 in - ESE 15.0 mph - N/A   Unknown
9:00 AM 47.8 °F - 43.3 °F 84% 30.04 in - ESE 15.0 mph - N/A   Unknown
10:00 AM 48.0 °F - 44.1 °F 86% 30.04 in - ESE 18.4 mph - N/A   Unknown
11:00 AM 48 °F - 43 °F 78% 30.05 in - ESE 19.6 mph - -  
11:00 AM 48.0 °F - 43.3 °F 84% 30.05 in - ESE 19.6 mph - N/A   Unknown
12:00 PM 48.7 °F - 43.9 °F 83% 30.06 in - ESE 18.4 mph - N/A   Unknown
1:00 PM 49.1 °F - 44.2 °F 83% 30.05 in - ESE 23.0 mph - N/A   Unknown
2:00 PM 49.3 °F - 44.1 °F 82% 30.04 in - ESE 21.9 mph - N/A   Unknown
3:00 PM 49.5 °F - 44.6 °F 83% 30.05 in - ESE 20.7 mph - N/A   Unknown
4:00 PM 49.3 °F - 44.6 °F 84% 30.05 in - ESE 21.9 mph - N/A   Unknown
5:00 PM 49 °F - 46 °F 83% 30.06 in - ESE 20.7 mph - -  
5:00 PM 49.5 °F - 45.5 °F 86% 30.06 in - ESE 20.7 mph - N/A   Unknown
6:00 PM 49.1 °F - 46.0 °F 89% 30.04 in - ESE 23.0 mph - N/A   Unknown
7:00 PM 48.9 °F - 46.6 °F 92% 30.04 in - ESE 26.5 mph - N/A   Unknown
8:00 PM 48.9 °F - 46.6 °F 92% 30.04 in - ESE 24.2 mph - N/A   Unknown
9:00 PM 48.9 °F - 46.4 °F 91% 30.02 in - ESE 26.5 mph - 0.01 in   Unknown
10:00 PM 49.3 °F - 45.9 °F 88% 30.01 in - ESE 25.3 mph - N/A   Unknown
11:00 PM 50 °F - 46 °F 81% 30.02 in - ESE 24.2 mph - -  
11:00 PM 49.8 °F - 46.0 °F 87% 30.02 in - ESE 24.2 mph - N/A   Unknown